Погода в Утене

Поиск расширенной информации на нашем сайте:

Полезная информация:

Новости сайта



02.01.2020
Опубликован Долгосрочный прогноз погоды по городам России и ближнего зарубежья на январь 2020 года.
Карты: Прогноз на январь и февраль 2020 года, Сравнение прогнозируемой аномалии приземной температуры воздуха на январь 2020 года по разным моделям.




Погода в Утене - сегодня

Время (UTC), дата Ветер
(°,м/с) 
Видим.   Явления Облачность Т
(°С)
Тd
(°С)
f(%) Тe
(°С)
Pmin
(гПа)
dP
(гПа)
Po
(мм)
O2
(г/м3)
Тmin Tmax R s Состояние
почвы
15 19.10.20 250 (З) 4-10{13}  20000 м  {ливн. осадки}  4/4 1000 м 
[Cu med, cong]
+7.3 -0.7 57 +6  1013.1  0.6  750  294           
18 19.10.20 230 (ЮЗ) 3-6{10}  20000 м  {ливн. осадки}  ясно 
+4.8 -0.6 68 +4  1014.8  1.6  751  298    +9.4  0.0     
21 19.10.20 240 (ЮЗ) 2-6{07}  20000 м    ясно 
+3.3 +1.5 88 +3  1016.3  1.4  752  299           
00 20.10.20 230 (ЮЗ) 4-7{07}  20000 м    ясно 
+2.4 +0.8 89 1016.9  0.6  753  301           
03 20.10.20 240 (ЮЗ) 2-4{08}  20000 м    8/8 1470 м 
[Sc]
+2.5 +0.5 87 +2  1018.2  1.3  754  301           
06 20.10.20 280 (З) 2-5{07}  20000 м    8/6 1260 м верхняя 
[Sc|Ci sp]
+2.7 -0.2 81 +2  1020.4  2.1  755  301  +1.6        влажная 
09 20.10.20 310 (СЗ) 3-7{08}  20000 м    5/3 1000 м верхняя 
[Cu med, cong|Ci fib]
+6.8 +0.9 66 +6  1022.2  757  297           
12 20.10.20 280 (З) 1-4{07}  20000 м    9/3 600 м верхняя 
[Cu med, cong|Cs]
+8.2 +0.2 57 +9  1022.8  0.7  757  296           
15 20.10.20 тихо () -2{05}  20000 м    10/0 верхняя 
[Cs]
+5.6 +0.6 70 +6  1023.2  0.2  758  299           
18 20.10.20 тихо () -2{03}  9000 м  дымка  10/0 средняя 
[Ac As]
+3.3 +1.2 86 +3  1022.3  -1  757  301    +8.4       
21 20.10.20 150 (ЮВ) 1-2{03}  20000 м    10/0 средняя 
[Ac As]
+4.5 +2.4 86 +5  1021.1  -1.1  756  299           
00 21.10.20 140 (ЮВ) 2-4{05}  20000 м    10/10 1500 м 
[Sc]
+5.1 +3.3 88 +5  1018.6  -2.4  754  298           
03 21.10.20 150 (ЮВ) 3-6{06}  20000 м  {ливн. осадки}  10/0 средняя 
[Ac As]
+5.5 +3.7 88 +4  1014.8  -3.8  751  296           
06 21.10.20 150 (ЮВ) 2-4{06}  19000 м  в посл. час дождь{ливн. осадки}  10/0 средняя 
[Ac As]
+5.3 +3.8 90 +5  1013.5  -1.3  750  296  +3.1    0.5    влажная 
09 21.10.20 180 (Ю) 2-4{06}  16000 м  {дождь}  10/10 400 м 
[St]
+7.6 +5.4 86 +8  1013.4  0.1  750  293           
12 21.10.20 190 (Ю) 3-5{05}  16000 м  {дождь}  10/10 420 м 
[St]
+8.9 +5.9 81 +8  1013.1  -0.3  750  292      0.0     
15 21.10.20 180 (Ю) 1-3{05}  15000 м    10/10 420 м 
[St]
+9 +6.3 83 +10  1013.4  0.3  750  292           
18 21.10.20 200 (Ю) 3-5{05}  15000 м    10/10 360 м 
[St]
+8.8 +6.5 85 +8  1013.1  -0.3  750  292    +9.2  0.0     
21 21.10.20 150 (ЮВ) 2-4{08}  4100 м  слаб. дождь  10/10 210 м 
[Frnb|Ns]
+8.2 +6.9 92 +8  1012.2  -0.9  749  292           
00 22.10.20 160 (Ю) 3-4{06}  5000 м  слаб. дождь  10/10 150 м 
[Frnb|Ns]
+8.6 +7.7 94 +8  1010.9  -1.3  749  291         
03 22.10.20 160 (Ю) 3-5{05}  10 км  в посл. час дождь  9/5 1000 м средняя 
[Sc|Ac und]
+9.1 +8.2 94 +9  1008  -2.8  746  290           
06 22.10.20 180 (Ю) 3-6{08}  11000 м  {дождь}  6/4 300 м верхняя 
[St|Ci fib]
+9.1 +7.4 89 +9  1006.7  -1.3  745  289  +8.1      влажная 
09 22.10.20 200 (Ю) 4-8{08}  17000 м    9/8 1500 м верхняя 
[Sc|Ci sp]
+11.9 +8.5 80 +11  1006.1  -0.5  745  286           
12 22.10.20 220 (ЮЗ) 4-8{11}  20000 м    9/8 750 м верхняя 
[Sc|Ci sp]
+13.8 +9.3 74 +13  1005.8  -0.2  745  284           
15 22.10.20 250 (З) 6-12{14}  19000 м  слаб. ливневой дождь  10/10 900 м кучево-дожд. 
[Cb cap]
+13.1 +10.3 83 +14  1006.5  0.7  745  285           
Время (UTC), дата Ветер
(°,м/с) 
Видим.   Явления Облачность Т
(°С)
Тd
(°С)
f(%) Тe
(°С)
Pmin
(гПа)
dP
(гПа)
Po
(мм)
O2
(г/м3)
Тmin Tmax R s Состояние
почвы

Для получения пояснительной информации подведите курсор к названию столбца.

ПОГОДА в Утене - архив

Всё, что Вы хотите узнать о погоде в Утене - удобно и подробно!

Выберите нужную дату (начиная с 1 января 2019* года) и нажмите кнопку "Найти".
Будут отображены архивные сводки погоды по пункту Утена, начиная с указанной даты.


Отображать данные в формате CSV (для использования в таблицах Excel)


Внимание! Наш архив погоды предназначен исключительно для личного некоммерческого использования в познавательных целях. Если Вам необходимы официальные справки о состоянии погоды (для производственных, юридических, коммерческих и т.п. целей), обращайтесь в органы Росгидромета.

*Примечание: данная дата относится к архиву по метеостанциям СССР (Россия, СНГ, Балтия).
Архив по метеостанциям Зарубежной Европы и Азии (кроме Китая) хранится 10 дней, по другим регионам земного шара (Китай, Африка, Америка, Австралия, Океания) - 1 день.

Утена - район местоположения метеостанции


Название, широта, долгота, высота метеостанции:
Утена 55.5°ш. 25.6°д. 106 м над ур. моря [Литва]

Дополнительная информация

В oтличие oт бoльшинства пoгoдных сайтoв мы публикуем пoдрoбную метеoинфoрмацию в детальнoм прoфессиoнальнoм фoрмате.

Характеристики температуры и влажнoсти вoздуха измеряются на высoте 2 м в тени вдали oт зданий и деревьев.
Скoрoсть ветра измеряется на высoте 10 м (на урoвне рoста челoвека скoрoсть ветра ниже в 1.5-2 раза). Если метеoстанция нахoдится в гoрoде или в лесу, тo скoрoсть ветра занижена на 2-4 м/с пo сравнению с oткрытым местoм. Скoрoсть ветра над акватoриями крупных рек и oзёр, а также на вершинах хoлмoв на 2-5 м/с выше, чем в oбычных услoвиях.
Атмoсфернoе давление в разных тoчках местнoсти мoжет значительнo oтличаться oт давления на метеoстанции, в зависимoсти oт услoвий рельефа (при пoдъёме на 10 м давление пoнижается примернo на 1 мм рт.ст.).